| time (UTC) | temp F | wind direction | speed knots | gust knots | rain 1hr in | rain 24hr in | rain mn in | humidity % | barometer mb |
| 20260507105409 | 48 | 196 | 0.0 | 0.9 | 0.00 | 0.00 | 0.00 | 57 | 1012.3 |
| 20260507104906 | 47 | 200 | 0.0 | 0.0 | 0.00 | 0.00 | 0.00 | 60 | 1012.2 |
| 20260507104402 | 48 | 228 | 0.9 | 1.7 | 0.00 | 0.00 | 0.00 | 63 | 1012.1 |
| 20260507103858 | 48 | 209 | 0.0 | 0.0 | 0.00 | 0.00 | 0.00 | 55 | 1012.2 |
| 20260507103355 | 47 | 189 | 0.0 | 0.9 | 0.00 | 0.00 | 0.00 | 58 | 1012.2 |
| 20260507102851 | 46 | 260 | 0.9 | 0.9 | 0.00 | 0.00 | 0.00 | 61 | 1012.0 |
| 20260507102348 | 46 | 185 | 0.0 | 0.0 | 0.00 | 0.00 | 0.00 | 57 | 1012.0 |
| 20260507101844 | 45 | 210 | 0.0 | 0.9 | 0.00 | 0.00 | 0.00 | 62 | 1012.0 |
| 20260507101344 | 45 | 177 | 0.0 | 0.9 | 0.00 | 0.00 | 0.00 | 57 | 1011.9 |
| 20260507100842 | 46 | 170 | 0.9 | 0.9 | 0.00 | 0.00 | 0.00 | 64 | 1011.9 |
| 20260507100340 | 46 | 184 | 0.0 | 0.9 | 0.00 | 0.00 | 0.00 | 54 | 1011.6 |
| 20260507095838 | 47 | 197 | 1.7 | 2.6 | 0.00 | 0.00 | 0.00 | 55 | 1011.7 |
| 20260507095334 | 47 | 171 | 2.6 | 2.6 | 0.00 | 0.00 | 0.00 | 52 | 1011.9 |
| 20260507094831 | 48 | 232 | 0.9 | 1.7 | 0.00 | 0.00 | 0.00 | 54 | 1011.7 |
| 20260507094327 | 47 | 210 | 4.3 | 5.2 | 0.00 | 0.00 | 0.00 | 54 | 1011.3 |
| 20260507093824 | 49 | 210 | 0.9 | 0.9 | 0.00 | 0.00 | 0.00 | 54 | 1011.3 |
| 20260507093323 | 49 | 144 | 2.6 | 2.6 | 0.00 | 0.00 | 0.00 | 48 | 1011.7 |
| 20260507092821 | 48 | 100 | 3.5 | 6.1 | 0.00 | 0.00 | 0.00 | 50 | 1011.6 |
| 20260507092317 | 48 | 203 | 0.0 | 0.0 | 0.00 | 0.00 | 0.00 | 54 | 1011.4 |
| 20260507091813 | 49 | 195 | 0.9 | 1.7 | 0.00 | 0.00 | 0.00 | 43 | 1011.3 |
| 20260507091311 | 49 | 197 | 0.9 | 0.9 | 0.00 | 0.00 | 0.00 | 57 | 1011.6 |
| 20260507090810 | 48 | 114 | 0.9 | 1.7 | 0.00 | 0.00 | 0.00 | 53 | 1011.4 |
| 20260507090307 | 49 | 199 | 0.0 | 0.0 | 0.00 | 0.00 | 0.00 | 56 | 1011.2 |
| 20260507085804 | 50 | 215 | 0.9 | 1.7 | 0.00 | 0.00 | 0.00 | 51 | 1011.2 |
| 20260507085301 | 50 | 228 | 5.2 | 7.0 | 0.00 | 0.00 | 0.00 | 47 | 1011.1 |
| 20260507084759 | 49 | 203 | 0.9 | 0.9 | 0.00 | 0.00 | 0.00 | 49 | 1011.7 |
| 20260507084255 | 49 | 207 | 0.0 | 0.9 | 0.00 | 0.00 | 0.00 | 59 | 1011.4 |
| 20260507083753 | 50 | 212 | 0.9 | 0.9 | 0.00 | 0.00 | 0.00 | 55 | 1011.4 |
| 20260507083249 | 49 | 194 | 0.0 | 0.9 | 0.00 | 0.00 | 0.00 | 54 | 1011.4 |
| 20260507082745 | 50 | 167 | 0.9 | 1.7 | 0.00 | 0.00 | 0.00 | 55 | 1011.4 |
| 20260507082241 | 50 | 205 | 0.9 | 0.9 | 0.00 | 0.00 | 0.00 | 60 | 1011.7 |
| 20260507081738 | 50 | 198 | 0.0 | 0.0 | 0.00 | 0.00 | 0.00 | 51 | 1011.6 |
| 20260507081234 | 51 | 214 | 0.9 | 0.9 | 0.00 | 0.00 | 0.00 | 53 | 1011.3 |
| 20260507080731 | 51 | 181 | 1.7 | 1.7 | 0.00 | 0.00 | 0.00 | 47 | 1011.6 |
| 20260507080227 | 50 | 238 | 0.9 | 1.7 | 0.00 | 0.00 | 0.00 | 55 | 1011.8 |
| 20260507075722 | 50 | 209 | 0.9 | 0.9 | 0.00 | 0.00 | 0.00 | 55 | 1011.6 |
| 20260507075219 | 50 | 172 | 0.0 | 0.0 | 0.00 | 0.00 | 0.00 | 57 | 1011.6 |
| 20260507074715 | 50 | 239 | 2.6 | 2.6 | 0.00 | 0.00 | 0.00 | 50 | 1011.6 |
| 20260507074214 | 50 | 204 | 1.7 | 1.7 | 0.00 | 0.00 | 0.00 | 49 | 1011.4 |
| 20260507073710 | 49 | 203 | 0.9 | 0.9 | 0.00 | 0.00 | 0.00 | 55 | 1011.3 |
| 20260507073207 | 50 | 146 | 1.7 | 2.6 | 0.00 | 0.00 | 0.00 | 60 | 1011.3 |
| 20260507072705 | 50 | 190 | 1.7 | 2.6 | 0.00 | 0.00 | 0.00 | 51 | 1011.6 |
| 20260507072201 | 50 | 212 | 0.9 | 0.9 | 0.00 | 0.00 | 0.00 | 52 | 1011.6 |
| 20260507071659 | 50 | 206 | 0.9 | 0.9 | 0.00 | 0.00 | 0.00 | 53 | 1011.6 |
| 20260507071155 | 48 | 215 | 0.9 | 0.9 | 0.00 | 0.00 | 0.00 | 62 | 1011.7 |
| 20260507070653 | 49 | 219 | 0.0 | 0.9 | 0.00 | 0.00 | 0.00 | 64 | 1011.8 |
| 20260507070149 | 47 | 203 | 0.9 | 0.9 | 0.00 | 0.00 | 0.00 | 70 | 1011.3 |
| 20260507065646 | 48 | 198 | 0.0 | 0.0 | 0.00 | 0.00 | 0.00 | 66 | 1011.9 |
| 20260507065143 | 49 | 200 | 0.0 | 0.0 | 0.00 | 0.00 | 0.00 | 65 | 1011.7 |
| 20260507064640 | 50 | 188 | 1.7 | 1.7 | 0.00 | 0.00 | 0.00 | 61 | 1011.7 |
| 20260507064139 | 50 | 204 | 2.6 | 2.6 | 0.00 | 0.00 | 0.00 | 53 | 1011.9 |
| 20260507063636 | 50 | 207 | 0.9 | 0.9 | 0.00 | 0.00 | 0.00 | 54 | 1011.7 |
| 20260507063132 | 49 | 102 | 1.7 | 2.6 | 0.00 | 0.00 | 0.00 | 60 | 1011.9 |
| 20260507062629 | 49 | 186 | 0.0 | 0.9 | 0.00 | 0.00 | 0.00 | 64 | 1012.0 |
| 20260507062127 | 50 | 209 | 0.9 | 0.9 | 0.00 | 0.00 | 0.00 | 64 | 1011.8 |
| 20260507061624 | 50 | 204 | 0.0 | 0.0 | 0.00 | 0.00 | 0.00 | 61 | 1011.8 |
| 20260507061122 | 50 | 204 | 0.0 | 0.9 | 0.00 | 0.00 | 0.00 | 58 | 1011.7 |
| 20260507060620 | 51 | 237 | 0.9 | 1.7 | 0.00 | 0.00 | 0.00 | 63 | 1011.9 |
| 20260507060116 | 51 | 182 | 0.9 | 0.9 | 0.00 | 0.00 | 0.00 | 62 | 1011.7 |
| 20260507055611 | 52 | 169 | 0.9 | 0.9 | 0.00 | 0.00 | 0.00 | 56 | 1011.9 |
| 20260507055108 | 52 | 192 | 0.9 | 0.9 | 0.00 | 0.00 | 0.00 | 52 | 1011.7 |
| 20260507054604 | 51 | 205 | 0.9 | 0.9 | 0.00 | 0.00 | 0.00 | 53 | 1011.8 |
| 20260507054101 | 51 | 203 | 0.0 | 0.0 | 0.00 | 0.00 | 0.00 | 66 | 1011.7 |
| 20260507053559 | 51 | 210 | 0.9 | 1.7 | 0.00 | 0.00 | 0.00 | 58 | 1012.0 |
| 20260507053057 | 51 | 202 | 0.0 | 0.0 | 0.00 | 0.00 | 0.00 | 63 | 1011.7 |
| 20260507052555 | 51 | 192 | 0.0 | 0.0 | 0.00 | 0.00 | 0.00 | 54 | 1011.7 |
| 20260507052051 | 52 | 242 | 1.7 | 1.7 | 0.00 | 0.00 | 0.00 | 56 | 1011.8 |
| 20260507051549 | 51 | 174 | 0.9 | 0.9 | 0.00 | 0.00 | 0.00 | 53 | 1011.7 |
| 20260507051045 | 51 | 210 | 0.9 | 0.9 | 0.00 | 0.00 | 0.00 | 61 | 1012.2 |
| 20260507050542 | 51 | 199 | 0.0 | 0.0 | 0.00 | 0.00 | 0.00 | 59 | 1012.0 |
| 20260507050038 | 52 | 201 | 0.9 | 0.9 | 0.00 | 0.00 | 0.00 | 50 | 1012.0 |
| 20260507045535 | 52 | 201 | 0.0 | 0.0 | 0.00 | 0.00 | 0.00 | 64 | 1011.9 |
| 20260507045032 | 53 | 205 | 0.0 | 0.9 | 0.00 | 0.00 | 0.00 | 60 | 1012.2 |
| 20260507044529 | 53 | 210 | 0.9 | 0.9 | 0.00 | 0.00 | 0.00 | 48 | 1011.8 |
| 20260507044026 | 53 | 162 | 1.7 | 1.7 | 0.00 | 0.00 | 0.00 | 58 | 1011.9 |
| 20260507043522 | 53 | 204 | 0.0 | 0.9 | 0.00 | 0.00 | 0.00 | 55 | 1012.1 |
| 20260507043020 | 53 | 214 | 1.7 | 1.7 | 0.00 | 0.00 | 0.00 | 48 | 1012.0 |
| 20260507042515 | 53 | 212 | 0.9 | 1.7 | 0.00 | 0.00 | 0.00 | 50 | 1012.0 |
| 20260507042011 | 53 | 189 | 2.6 | 2.6 | 0.00 | 0.00 | 0.00 | 51 | 1012.1 |
| 20260507041509 | 53 | 211 | 1.7 | 2.6 | 0.00 | 0.00 | 0.00 | 52 | 1011.8 |
| 20260507041006 | 53 | 177 | 0.9 | 0.9 | 0.00 | 0.00 | 0.00 | 52 | 1011.8 |
| 20260507040502 | 53 | 167 | 0.0 | 0.9 | 0.00 | 0.00 | 0.00 | 52 | 1011.7 |
| 20260507035957 | 53 | 188 | 0.9 | 1.7 | 0.00 | 0.26 | 0.26 | 54 | 1011.4 |
| 20260507035454 | 54 | 156 | 0.9 | 1.7 | 0.00 | 0.26 | 0.26 | 53 | 1011.4 |
| 20260507034950 | 54 | 165 | 3.5 | 4.3 | 0.00 | 0.26 | 0.26 | 55 | 1011.4 |
| 20260507034447 | 54 | 197 | 1.7 | 4.3 | 0.00 | 0.26 | 0.26 | 69 | 1011.7 |
| 20260507033945 | 54 | 181 | 0.9 | 1.7 | 0.00 | 0.26 | 0.26 | 72 | 1011.7 |
| 20260507033443 | 54 | 192 | 2.6 | 2.6 | 0.00 | 0.26 | 0.26 | 71 | 1011.3 |
| 20260507032939 | 54 | 194 | 0.9 | 0.9 | 0.00 | 0.26 | 0.26 | 71 | 1011.4 |
| 20260507032437 | 54 | 175 | 2.6 | 2.6 | 0.00 | 0.26 | 0.26 | 71 | 1011.3 |
| 20260507031932 | 55 | 205 | 1.7 | 1.7 | 0.00 | 0.26 | 0.26 | 72 | 1011.2 |
| 20260507031429 | 54 | 229 | 1.7 | 2.6 | 0.00 | 0.26 | 0.26 | 73 | 1011.6 |
| 20260507030926 | 55 | 190 | 2.6 | 2.6 | 0.00 | 0.26 | 0.26 | 72 | 1011.1 |
| 20260507030423 | 55 | 173 | 0.9 | 0.9 | 0.00 | 0.26 | 0.26 | 71 | 1011.2 |
| 20260507025920 | 54 | 193 | 2.6 | 2.6 | 0.00 | 0.26 | 0.26 | 72 | 1011.1 |
| 20260507025418 | 55 | 197 | 0.9 | 1.7 | 0.00 | 0.26 | 0.26 | 72 | 1011.0 |
| 20260507024915 | 55 | 197 | 0.0 | 0.0 | 0.00 | 0.26 | 0.26 | 73 | 1011.0 |
| 20260507024412 | 55 | 197 | 0.9 | 1.7 | 0.00 | 0.26 | 0.26 | 73 | 1011.0 |
| 20260507023908 | 55 | 199 | 0.0 | 0.0 | 0.00 | 0.26 | 0.26 | 72 | 1010.7 |
| 20260507023405 | 55 | 190 | 0.0 | 0.9 | 0.00 | 0.26 | 0.26 | 74 | 1010.6 |
| 20260507022902 | 55 | 156 | 0.9 | 1.7 | 0.00 | 0.26 | 0.26 | 71 | 1010.6 |
| 20260507022359 | 54 | 200 | 0.0 | 0.0 | 0.00 | 0.26 | 0.26 | 79 | 1010.8 |
| 20260507021855 | 54 | 203 | 0.9 | 0.9 | 0.00 | 0.26 | 0.26 | 74 | 1010.9 |
| 20260507021350 | 55 | 211 | 0.0 | 0.9 | 0.00 | 0.26 | 0.26 | 74 | 1011.0 |
| 20260507020848 | 55 | 191 | 2.6 | 2.6 | 0.00 | 0.26 | 0.26 | 72 | 1010.8 |
| 20260507020344 | 55 | 229 | 2.6 | 2.6 | 0.00 | 0.26 | 0.26 | 74 | 1010.9 |
| 20260507015842 | 55 | 176 | 1.7 | 1.7 | 0.00 | 0.26 | 0.26 | 74 | 1010.8 |
| 20260507015340 | 55 | 202 | 1.7 | 1.7 | 0.00 | 0.26 | 0.26 | 73 | 1011.0 |
| 20260507014836 | 55 | 166 | 2.6 | 2.6 | 0.00 | 0.26 | 0.26 | 71 | 1010.7 |
| 20260507014333 | 55 | 213 | 0.0 | 0.0 | 0.00 | 0.26 | 0.26 | 71 | 1010.6 |
| 20260507013830 | 55 | 224 | 4.3 | 5.2 | 0.00 | 0.26 | 0.26 | 71 | 1011.3 |
| 20260507013327 | 54 | 209 | 2.6 | 4.3 | 0.00 | 0.26 | 0.26 | 76 | 1011.1 |
| 20260507012825 | 54 | 208 | 0.9 | 0.9 | 0.00 | 0.26 | 0.26 | 81 | 1011.0 |
| 20260507012320 | 55 | 207 | 0.0 | 0.9 | 0.00 | 0.26 | 0.26 | 82 | 1011.0 |
| 20260507011818 | 55 | 221 | 0.9 | 0.9 | 0.00 | 0.26 | 0.26 | 79 | 1011.3 |
| 20260507011315 | 55 | 198 | 0.0 | 0.0 | 0.00 | 0.26 | 0.26 | 75 | 1011.3 |
| 20260507010814 | 55 | 202 | 0.9 | 0.9 | 0.00 | 0.26 | 0.26 | 78 | 1011.7 |
| 20260507010310 | 56 | 202 | 0.0 | 0.0 | 0.00 | 0.26 | 0.26 | 75 | 1011.2 |
| 20260507005807 | 55 | 200 | 0.9 | 1.7 | 0.00 | 0.26 | 0.26 | 75 | 1011.2 |
| 20260507005305 | 56 | 203 | 0.9 | 0.9 | 0.00 | 0.26 | 0.26 | 76 | 1010.9 |
| 20260507004800 | 56 | 199 | 0.0 | 0.0 | 0.00 | 0.26 | 0.26 | 75 | 1010.7 |
| 20260507004258 | 56 | 196 | 0.9 | 1.7 | 0.00 | 0.26 | 0.26 | 74 | 1010.8 |
| 20260507003754 | 56 | 207 | 0.9 | 0.9 | 0.00 | 0.26 | 0.26 | 77 | 1011.1 |
| 20260507003249 | 56 | 199 | 2.6 | 2.6 | 0.00 | 0.26 | 0.26 | 75 | 1010.8 |
| 20260507002745 | 56 | 205 | 0.0 | 0.9 | 0.00 | 0.26 | 0.26 | 78 | 1010.9 |
| 20260507002241 | 56 | 220 | 2.6 | 2.6 | 0.00 | 0.26 | 0.26 | 76 | 1010.8 |
| 20260507001738 | 56 | 203 | 1.7 | 2.6 | 0.00 | 0.26 | 0.26 | 75 | 1010.6 |
| 20260507001236 | 56 | 206 | 1.7 | 1.7 | 0.00 | 0.26 | 0.26 | 75 | 1010.4 |
| 20260507000732 | 57 | 190 | 1.7 | 2.6 | 0.00 | 0.26 | 0.26 | 76 | 1010.3 |
| 20260507000227 | 57 | 191 | 1.7 | 1.7 | 0.00 | 0.26 | 0.26 | 76 | 1010.3 |
| 20260506235725 | 57 | 190 | 1.7 | 1.7 | 0.00 | 0.26 | 0.26 | 76 | 1010.0 |
| 20260506235220 | 57 | 159 | 0.9 | 0.9 | 0.00 | 0.26 | 0.26 | 76 | 1009.9 |
| 20260506234717 | 57 | 221 | 4.3 | 5.2 | 0.00 | 0.26 | 0.26 | 75 | 1009.7 |
| 20260506234215 | 57 | 194 | 3.5 | 4.3 | 0.00 | 0.26 | 0.26 | 75 | 1009.6 |
| 20260506233712 | 58 | 350 | 2.6 | 2.6 | 0.00 | 0.26 | 0.26 | 76 | 1009.6 |
| 20260506233208 | 58 | 199 | 2.6 | 2.6 | 0.00 | 0.26 | 0.26 | 75 | 1009.2 |
| 20260506232705 | 58 | 208 | 2.6 | 4.3 | 0.00 | 0.26 | 0.26 | 75 | 1009.4 |
| 20260506232200 | 58 | 219 | 1.7 | 2.6 | 0.00 | 0.26 | 0.26 | 76 | 1009.2 |
| 20260506231657 | 58 | 211 | 0.9 | 0.9 | 0.00 | 0.26 | 0.26 | 76 | 1009.3 |
| 20260506231156 | 59 | 204 | 3.5 | 5.2 | 0.00 | 0.26 | 0.26 | 77 | 1009.3 |
| 20260506230652 | 59 | 190 | 3.5 | 5.2 | 0.00 | 0.26 | 0.26 | 75 | 1009.3 |
| 20260506230149 | 59 | 223 | 2.6 | 4.3 | 0.00 | 0.26 | 0.26 | 77 | 1009.2 |
| 20260506225645 | 59 | 200 | 5.2 | 6.1 | 0.00 | 0.26 | 0.26 | 75 | 1009.2 |
| 20260506225143 | 59 | 213 | 0.9 | 0.9 | 0.00 | 0.26 | 0.26 | 78 | 1009.1 |
| 20260506224639 | 59 | 224 | 2.6 | 2.6 | 0.00 | 0.26 | 0.26 | 79 | 1009.2 |
| 20260506224135 | 59 | 211 | 2.6 | 2.6 | 0.00 | 0.26 | 0.26 | 78 | 1008.9 |
| 20260506223632 | 59 | 221 | 2.6 | 2.6 | 0.00 | 0.26 | 0.26 | 79 | 1009.0 |
| 20260506223128 | 60 | 206 | 1.7 | 1.7 | 0.00 | 0.26 | 0.26 | 77 | 1008.6 |
| 20260506222625 | 60 | 213 | 4.3 | 7.0 | 0.00 | 0.26 | 0.26 | 77 | 1008.6 |
| 20260506222121 | 60 | 213 | 3.5 | 4.3 | 0.00 | 0.26 | 0.26 | 75 | 1008.8 |
| 20260506221619 | 60 | 214 | 2.6 | 4.3 | 0.00 | 0.26 | 0.26 | 73 | 1008.7 |
| 20260506221117 | 60 | 207 | 6.1 | 7.0 | 0.00 | 0.26 | 0.26 | 73 | 1008.6 |
| 20260506220613 | 60 | 245 | 4.3 | 6.1 | 0.00 | 0.26 | 0.26 | 76 | 1008.7 |
| 20260506220108 | 61 | 238 | 6.1 | 7.0 | 0.00 | 0.26 | 0.26 | 77 | 1008.7 |
| 20260506215605 | 60 | 210 | 1.7 | 1.7 | 0.00 | 0.26 | 0.26 | 77 | 1008.7 |
| 20260506215101 | 61 | 207 | 5.2 | 7.0 | 0.00 | 0.26 | 0.26 | 76 | 1008.4 |
| 20260506214558 | 62 | 214 | 2.6 | 2.6 | 0.00 | 0.26 | 0.26 | 75 | 1008.4 |
| 20260506214055 | 62 | 212 | 4.3 | 6.1 | 0.00 | 0.26 | 0.26 | 75 | 1008.2 |
| 20260506213553 | 64 | 205 | 5.2 | 7.0 | 0.00 | 0.26 | 0.26 | 73 | 1008.2 |
| 20260506213050 | 64 | 215 | 0.9 | 0.9 | 0.00 | 0.26 | 0.26 | 71 | 1008.1 |
| 20260506212547 | 64 | 240 | 2.6 | 4.3 | 0.00 | 0.26 | 0.26 | 74 | 1007.8 |
| 20260506212042 | 64 | 205 | 7.8 | 11.3 | 0.00 | 0.26 | 0.26 | 74 | 1007.7 |
| 20260506211538 | 65 | 205 | 7.0 | 7.8 | 0.00 | 0.26 | 0.26 | 75 | 1007.6 |
| 20260506211035 | 64 | 192 | 4.3 | 5.2 | 0.00 | 0.26 | 0.26 | 76 | 1007.5 |
| 20260506210532 | 64 | 208 | 4.3 | 6.1 | 0.00 | 0.26 | 0.26 | 77 | 1007.1 |
| 20260506210029 | 64 | 198 | 2.6 | 4.3 | 0.00 | 0.26 | 0.26 | 78 | 1007.2 |
| 20260506205525 | 62 | 218 | 1.7 | 1.7 | 0.00 | 0.26 | 0.26 | 80 | 1007.1 |
| 20260506205021 | 62 | 187 | 9.6 | 12.2 | 0.00 | 0.26 | 0.26 | 80 | 1007.0 |
| 20260506204519 | 62 | 226 | 4.3 | 6.1 | 0.00 | 0.26 | 0.26 | 82 | 1007.0 |
| 20260506204016 | 62 | 202 | 7.8 | 9.6 | 0.00 | 0.26 | 0.26 | 81 | 1006.9 |
| 20260506203515 | 62 | 208 | 4.3 | 6.1 | 0.00 | 0.26 | 0.26 | 82 | 1007.0 |
| 20260506203011 | 62 | 201 | 6.1 | 12.2 | 0.00 | 0.26 | 0.26 | 84 | 1006.9 |
| 20260506202508 | 62 | 228 | 3.5 | 8.7 | 0.00 | 0.26 | 0.26 | 83 | 1007.1 |
| 20260506202004 | 62 | 202 | 5.2 | 7.0 | 0.00 | 0.26 | 0.26 | 84 | 1006.9 |
| 20260506201502 | 63 | 247 | 1.7 | 4.3 | 0.00 | 0.26 | 0.26 | 85 | 1006.8 |
| 20260506200957 | 64 | 235 | 3.5 | 5.2 | 0.00 | 0.26 | 0.26 | 84 | 1006.3 |
| 20260506200454 | 65 | 200 | 2.6 | 4.3 | 0.00 | 0.26 | 0.26 | 81 | 1006.6 |
| 20260506195951 | 65 | 214 | 3.5 | 4.3 | 0.00 | 0.26 | 0.26 | 80 | 1006.3 |
| 20260506195448 | 65 | 207 | 4.3 | 5.2 | 0.00 | 0.26 | 0.26 | 79 | 1006.6 |
| 20260506194944 | 65 | 203 | 3.5 | 4.3 | 0.00 | 0.26 | 0.26 | 79 | 1006.6 |
| 20260506194442 | 66 | 226 | 5.2 | 7.0 | 0.00 | 0.26 | 0.26 | 78 | 1006.6 |
| 20260506193938 | 65 | 193 | 4.3 | 5.2 | 0.00 | 0.26 | 0.26 | 80 | 1006.4 |
| 20260506193435 | 64 | 199 | 0.9 | 1.7 | 0.00 | 0.26 | 0.26 | 84 | 1006.5 |
| 20260506192932 | 64 | 218 | 2.6 | 2.6 | 0.00 | 0.26 | 0.26 | 85 | 1006.6 |
| 20260506192429 | 63 | 210 | 0.9 | 1.7 | 0.00 | 0.26 | 0.26 | 88 | 1006.7 |
| 20260506191926 | 63 | 232 | 2.6 | 2.6 | 0.00 | 0.26 | 0.26 | 89 | 1006.7 |
| 20260506191423 | 63 | 207 | 3.5 | 5.2 | 0.00 | 0.26 | 0.26 | 90 | 1006.8 |
| 20260506190919 | 63 | 209 | 4.3 | 6.1 | 0.00 | 0.26 | 0.26 | 89 | 1006.4 |
| 20260506190416 | 63 | 209 | 2.6 | 2.6 | 0.00 | 0.26 | 0.26 | 92 | 1006.5 |
| 20260506185913 | 63 | 227 | 2.6 | 2.6 | 0.00 | 0.26 | 0.26 | 92 | 1006.5 |
| 20260506185410 | 63 | 223 | 2.6 | 2.6 | 0.00 | 0.26 | 0.26 | 92 | 1006.5 |
| 20260506184907 | 63 | 224 | 2.6 | 2.6 | 0.00 | 0.26 | 0.26 | 92 | 1006.5 |
| 20260506184404 | 62 | 210 | 2.6 | 2.6 | 0.00 | 0.26 | 0.26 | 93 | 1006.6 |
| 20260506183901 | 62 | 198 | 2.6 | 2.6 | 0.00 | 0.26 | 0.26 | 93 | 1006.6 |
| 20260506183355 | 63 | 230 | 2.6 | 4.3 | 0.00 | 0.26 | 0.26 | 92 | 1006.6 |
| 20260506182853 | 63 | 214 | 1.7 | 1.7 | 0.00 | 0.26 | 0.26 | 92 | 1006.6 |
| 20260506182350 | 63 | 207 | 0.9 | 0.9 | 0.00 | 0.26 | 0.26 | 92 | 1006.5 |
| 20260506181848 | 63 | 211 | 3.5 | 4.3 | 0.00 | 0.26 | 0.26 | 91 | 1006.5 |
| 20260506181346 | 63 | 231 | 2.6 | 2.6 | 0.00 | 0.26 | 0.26 | 91 | 1006.8 |
| 20260506180843 | 63 | 221 | 2.6 | 2.6 | 0.00 | 0.26 | 0.26 | 92 | 1006.4 |
| 20260506180339 | 63 | 196 | 3.5 | 5.2 | 0.00 | 0.26 | 0.26 | 92 | 1006.5 |
| 20260506175835 | 63 | 219 | 3.5 | 4.3 | 0.00 | 0.26 | 0.26 | 92 | 1006.6 |
| 20260506175332 | 62 | 208 | 1.7 | 2.6 | 0.00 | 0.26 | 0.26 | 92 | 1006.6 |
| 20260506174829 | 62 | 220 | 2.6 | 2.6 | 0.00 | 0.26 | 0.26 | 93 | 1006.5 |
| 20260506174326 | 62 | 242 | 5.2 | 6.1 | 0.00 | 0.26 | 0.26 | 93 | 1006.6 |
| 20260506173824 | 62 | 232 | 6.1 | 7.8 | 0.00 | 0.26 | 0.26 | 94 | 1006.8 |
| 20260506173321 | 62 | 203 | 3.5 | 4.3 | 0.00 | 0.26 | 0.26 | 95 | 1006.6 |
| 20260506172818 | 62 | 184 | 2.6 | 2.6 | 0.00 | 0.26 | 0.26 | 95 | 1006.5 |
| 20260506172315 | 61 | 200 | 2.6 | 2.6 | 0.00 | 0.26 | 0.26 | 96 | 1006.4 |
| 20260506171812 | 61 | 247 | 4.3 | 5.2 | 0.00 | 0.26 | 0.26 | 96 | 1006.6 |
| 20260506171309 | 60 | 214 | 2.6 | 2.6 | 0.00 | 0.26 | 0.26 | 97 | 1006.8 |
| 20260506170807 | 60 | 206 | 2.6 | 2.6 | 0.00 | 0.26 | 0.26 | 98 | 1006.6 |
| 20260506170302 | 60 | 177 | 0.0 | 0.9 | 0.00 | 0.26 | 0.26 | 98 | 1006.7 |
| 20260506165801 | 60 | 206 | 0.9 | 0.9 | 0.00 | 0.26 | 0.26 | 98 | 1006.8 |
| 20260506165258 | 59 | 196 | 0.0 | 0.0 | 0.00 | 0.26 | 0.26 | 98 | 1006.7 |
| 20260506164755 | 60 | 197 | 0.0 | 0.0 | 0.00 | 0.26 | 0.26 | 98 | 1006.8 |
| 20260506164252 | 59 | 195 | 0.0 | 0.0 | 0.07 | 0.26 | 0.26 | 98 | 1006.8 |
| 20260506163749 | 59 | 187 | 0.0 | 0.0 | 0.07 | 0.26 | 0.26 | 97 | 1006.8 |
| 20260506163243 | 59 | 200 | 0.0 | 0.0 | 0.00 | 0.25 | 0.25 | 97 | 1006.8 |
| 20260506162740 | 59 | 199 | 0.0 | 0.0 | 0.00 | 0.25 | 0.25 | 97 | 1006.9 |
| 20260506162238 | 59 | 196 | 0.0 | 0.0 | 0.00 | 0.25 | 0.25 | 97 | 1007.1 |
| 20260506161735 | 59 | 197 | 0.0 | 0.0 | 0.00 | 0.25 | 0.25 | 97 | 1006.9 |
| 20260506161232 | 59 | 199 | 0.0 | 0.0 | 0.00 | 0.25 | 0.25 | 97 | 1006.9 |
| 20260506160729 | 59 | 192 | 0.0 | 0.0 | 0.00 | 0.25 | 0.25 | 97 | 1006.8 |
| 20260506160226 | 59 | 195 | 0.0 | 0.0 | 0.00 | 0.25 | 0.25 | 97 | 1007.0 |
| 20260506155725 | 59 | 200 | 0.0 | 0.0 | 0.00 | 0.25 | 0.25 | 97 | 1007.2 |
| 20260506155222 | 59 | 199 | 0.0 | 0.0 | 0.00 | 0.25 | 0.25 | 97 | 1007.0 |
| 20260506153329 | 59 | 200 | 0.0 | 0.0 | 0.00 | 0.25 | 0.25 | 97 | 1006.6 |
| 20260506152826 | 59 | 201 | 0.0 | 0.0 | 0.00 | 0.25 | 0.25 | 97 | 1006.4 |
| 20260506152323 | 58 | 201 | 0.0 | 0.0 | 0.00 | 0.25 | 0.25 | 97 | 1006.6 |
| 20260506151822 | 58 | 198 | 0.0 | 0.0 | 0.00 | 0.25 | 0.25 | 97 | 1006.6 |
| 20260506151318 | 58 | 200 | 0.0 | 0.0 | 0.00 | 0.25 | 0.25 | 97 | 1006.4 |
| 20260506150815 | 58 | 201 | 0.0 | 0.0 | 0.00 | 0.25 | 0.25 | 97 | 1006.3 |
| 20260506150312 | 58 | 202 | 0.0 | 0.0 | 0.00 | 0.25 | 0.25 | 98 | 1006.2 |
| 20260506145809 | 58 | 196 | 0.0 | 0.0 | 0.00 | 0.25 | 0.25 | 98 | 1006.4 |
| 20260506145306 | 57 | 201 | 0.0 | 0.0 | 0.00 | 0.25 | 0.25 | 98 | 1006.4 |
| 20260506144803 | 58 | 203 | 0.0 | 0.0 | 0.00 | 0.25 | 0.25 | 98 | 1006.2 |
| 20260506144259 | 58 | 199 | 0.0 | 0.0 | 0.00 | 0.25 | 0.25 | 98 | 1006.5 |
| 20260506143757 | 58 | 198 | 0.0 | 0.0 | 0.00 | 0.25 | 0.25 | 98 | 1006.3 |
| 20260506143254 | 57 | 199 | 0.0 | 0.0 | 0.00 | 0.25 | 0.25 | 98 | 1006.5 |
| 20260506142753 | 57 | 200 | 0.0 | 0.0 | 0.05 | 0.25 | 0.25 | 98 | 1006.5 |
| 20260506142250 | 57 | 201 | 0.0 | 0.0 | 0.05 | 0.25 | 0.25 | 98 | 1006.5 |
| 20260506141748 | 57 | 200 | 0.0 | 0.0 | 0.00 | 0.24 | 0.24 | 98 | 1006.6 |
| 20260506141246 | 57 | 199 | 0.0 | 0.0 | 0.07 | 0.24 | 0.24 | 98 | 1006.8 |
| 20260506140743 | 57 | 200 | 0.0 | 0.0 | 0.07 | 0.24 | 0.24 | 98 | 1006.8 |
| 20260506140240 | 57 | 201 | 0.0 | 0.0 | 0.12 | 0.24 | 0.24 | 98 | 1006.6 |
| 20260506135737 | 57 | 205 | 0.0 | 0.0 | 0.12 | 0.23 | 0.23 | 99 | 1006.7 |
| 20260506135233 | 57 | 201 | 0.0 | 0.0 | 0.07 | 0.22 | 0.22 | 99 | 1006.7 |
| 20260506134730 | 57 | 201 | 0.0 | 0.0 | 0.05 | 0.21 | 0.21 | 98 | 1006.9 |
| 20260506134227 | 57 | 201 | 0.0 | 0.0 | 0.05 | 0.21 | 0.21 | 98 | 1006.7 |
| 20260506133724 | 57 | 202 | 0.0 | 0.0 | 0.00 | 0.20 | 0.20 | 98 | 1006.7 |
| 20260506133221 | 57 | 202 | 0.0 | 0.0 | 0.07 | 0.20 | 0.20 | 99 | 1006.8 |
| 20260506132718 | 57 | 203 | 0.0 | 0.0 | 0.07 | 0.20 | 0.20 | 99 | 1006.7 |
| 20260506132215 | 57 | 202 | 0.0 | 0.0 | 0.05 | 0.19 | 0.19 | 98 | 1007.1 |
| 20260506131713 | 57 | 205 | 0.0 | 0.0 | 0.12 | 0.19 | 0.19 | 98 | 1006.9 |
| 20260506131208 | 57 | 201 | 0.0 | 0.0 | 0.12 | 0.18 | 0.18 | 98 | 1006.6 |
| 20260506130705 | 57 | 201 | 0.0 | 0.0 | 0.12 | 0.17 | 0.17 | 98 | 1006.8 |
| 20260506130202 | 57 | 201 | 0.0 | 0.0 | 0.07 | 0.16 | 0.16 | 98 | 1006.7 |
| 20260506125700 | 57 | 200 | 0.0 | 0.0 | 0.07 | 0.16 | 0.16 | 98 | 1006.7 |
| 20260506125158 | 57 | 200 | 0.0 | 0.0 | 0.07 | 0.15 | 0.15 | 98 | 1006.7 |
| 20260506124656 | 57 | 201 | 0.0 | 0.0 | 0.07 | 0.15 | 0.15 | 98 | 1006.9 |
| 20260506124154 | 57 | 202 | 0.0 | 0.0 | 0.05 | 0.14 | 0.14 | 98 | 1006.7 |
| 20260506123651 | 57 | 199 | 0.0 | 0.0 | 0.05 | 0.14 | 0.14 | 98 | 1006.7 |
| 20260506123149 | 57 | 201 | 0.0 | 0.0 | 0.00 | 0.13 | 0.13 | 98 | 1006.6 |
| 20260506122646 | 56 | 200 | 0.0 | 0.0 | 0.07 | 0.13 | 0.13 | 98 | 1006.7 |
| 20260506122143 | 56 | 201 | 0.0 | 0.0 | 0.12 | 0.13 | 0.13 | 98 | 1006.9 |
| 20260506121641 | 56 | 201 | 0.0 | 0.0 | 0.19 | 0.13 | 0.13 | 98 | 1007.0 |
| 20260506121137 | 56 | 201 | 0.0 | 0.0 | 0.12 | 0.11 | 0.11 | 98 | 1007.0 |
| 20260506120635 | 56 | 200 | 0.0 | 0.0 | 0.12 | 0.10 | 0.10 | 98 | 1007.0 |
| 20260506120132 | 56 | 200 | 0.0 | 0.0 | 0.12 | 0.09 | 0.09 | 97 | 1007.1 |
| 20260506115631 | 56 | 201 | 0.0 | 0.0 | 0.12 | 0.08 | 0.08 | 97 | 1007.3 |
| 20260506115129 | 56 | 203 | 0.0 | 0.0 | 0.12 | 0.07 | 0.07 | 97 | 1007.2 |
| 20260506114625 | 56 | 201 | 0.0 | 0.0 | 0.05 | 0.06 | 0.06 | 97 | 1007.0 |
| 20260506114124 | 56 | 202 | 0.0 | 0.0 | 0.07 | 0.05 | 0.05 | 97 | 1007.2 |
| 20260506113622 | 56 | 206 | 0.0 | 0.0 | 0.12 | 0.05 | 0.05 | 97 | 1007.4 |
| 20260506113119 | 56 | 202 | 0.0 | 0.0 | 0.05 | 0.04 | 0.04 | 96 | 1007.6 |
| 20260506112615 | 56 | 201 | 0.0 | 0.0 | 0.07 | 0.03 | 0.03 | 96 | 1007.1 |
| 20260506112112 | 56 | 204 | 0.0 | 0.0 | 0.07 | 0.03 | 0.03 | 96 | 1007.0 |
| 20260506111610 | 56 | 202 | 0.0 | 0.0 | 0.07 | 0.02 | 0.02 | 95 | 1006.8 |
| 20260506111108 | 56 | 204 | 0.0 | 0.0 | 0.07 | 0.02 | 0.02 | 95 | 1006.7 |
| 20260506110605 | 56 | 200 | 0.0 | 0.0 | 0.00 | 0.01 | 0.01 | 95 | 1006.4 |
| 20260506105558 | 57 | 201 | 0.0 | 0.0 | 0.05 | 0.01 | 0.01 | 94 | 1006.4 |